Robstown, TX

6:29 PM CST on January 17, 2018 (GMT -0600)
Robstown

Weather History for KRBO - April, 2013

Change the Weather History Date:

Wednesday, April 3, 2013

  Actual Average (KCRP) Record (KCRP)
Temperature  
Mean Temperature 67 °F -  
Max Temperature 77 °F 77 °F 94 °F (2017)
Min Temperature 57 °F 60 °F 33 °F (1987)
Cooling Degree Days 2    
Growing Degree Days 17 (Base 50)    
Moisture  
Dew Point 59 °F    
Average Humidity 72    
Maximum Humidity 92    
Minimum Humidity 50    
Precipitation  
Precipitation 0.00 in - - ()
Sea Level Pressure  
Sea Level Pressure 29.93 in    
Wind  
Wind Speed 12 mph (NNE)    
Max Wind Speed 24 mph    
Max Gust Speed 30 mph    
Visibility 10 miles    
Events Rain    
Averages and records for this station are not official NWS values.
T = Trace of Precipitation, MM = Missing Value Source: NWS Daily Summary

Daily Weather History Graph

Daily Weather History Graph

Search for Another Location

Airport or City:

Trip Planner

Search our weather history database for the weather conditions in past years. The results will help you decide how hot, cold, wet, or windy it might be!

Date:

Astronomy

Apr. 03, 2013 Rise Set
Actual Time 7:18 AM CDT 7:49 PM CDT
Civil Twilight 6:54 AM CDT 8:13 PM CDT
Nautical Twilight 6:27 AM CDT 8:40 PM CDT
Astronomical Twilight 5:59 AM CDT 9:09 PM CDT
Moon 2:27 AM CDT (4/3) 1:34 PM CDT (4/3)
Length of Visible Light 13h 18m
Length of Day
12h 31m
Last Quarter, 44% of the Moon is Illuminated
Apr 3
Last Quarter
Apr 10
New
Apr 18
First Quarter
Apr 25
Full
May 2
Last Quarter

Hourly Weather History & Observations

Time (CDT) Temp. Dew Point Humidity Pressure Visibility Wind Dir Wind Speed Gust Speed Precip Events Conditions
12:15 AM 73.4 °F 70.2 °F 90% 29.84 in 7.0 mi East 10.4 mph - N/A Rain Light Rain
12:35 AM 73.0 °F 70.2 °F 91% 29.85 in 7.0 mi ENE 6.9 mph - N/A   Overcast
12:55 AM 72.9 °F 70.0 °F 91% 29.84 in 7.0 mi East 6.9 mph - N/A   Overcast
1:15 AM 72.9 °F 69.8 °F 90% 29.85 in 5.0 mi East 6.9 mph - N/A   Overcast
1:35 AM 72.9 °F 69.8 °F 90% 29.86 in 7.0 mi NNE 9.2 mph - N/A   Overcast
1:55 AM 72.7 °F 69.8 °F 91% 29.84 in 5.0 mi NE 15.0 mph - N/A   Overcast
2:15 AM 72.7 °F 69.8 °F 91% 29.85 in 5.0 mi NE 9.2 mph - N/A   Overcast
2:35 AM 72.5 °F 69.8 °F 91% 29.85 in 5.0 mi NNE 13.8 mph 18.4 mph N/A   Overcast
2:55 AM 72.0 °F 69.4 °F 92% 29.84 in 7.0 mi NE 15.0 mph 18.4 mph N/A   Overcast
3:15 AM 70.2 °F 63.9 °F 80% 29.84 in 10.0 mi NE 13.8 mph 20.7 mph N/A   Overcast
3:35 AM 69.8 °F 61.5 °F 75% 29.83 in 10.0 mi NE 10.4 mph 16.1 mph N/A   Mostly Cloudy
3:55 AM 69.4 °F 60.1 °F 72% 29.83 in 10.0 mi NE 8.1 mph - N/A   Overcast
4:15 AM 68.9 °F 60.3 °F 74% 29.82 in 10.0 mi NNE 5.8 mph - N/A   Overcast
4:35 AM 68.9 °F 60.4 °F 74% 29.82 in 10.0 mi NE 4.6 mph - N/A   Mostly Cloudy
4:55 AM 68.4 °F 60.1 °F 75% 29.81 in 10.0 mi ENE 6.9 mph - N/A   Scattered Clouds
5:15 AM 68.0 °F 59.4 °F 74% 29.81 in 10.0 mi NE 5.8 mph - N/A   Clear
5:35 AM 67.8 °F 59.4 °F 74% 29.81 in 10.0 mi NNE 4.6 mph - N/A   Clear
5:55 AM 67.1 °F 59.2 °F 76% 29.81 in 10.0 mi ENE 5.8 mph - N/A   Clear
6:15 AM 66.7 °F 59.5 °F 78% 29.83 in 10.0 mi North 11.5 mph - N/A   Clear
6:35 AM 66.2 °F 59.9 °F 80% 29.86 in 10.0 mi North 8.1 mph - N/A   Scattered Clouds
6:55 AM 65.7 °F 60.3 °F 83% 29.88 in 10.0 mi North 17.3 mph 20.7 mph N/A   Mostly Cloudy
7:15 AM 64.6 °F 59.0 °F 82% 29.87 in 10.0 mi NNE 16.1 mph 23.0 mph N/A   Overcast
7:35 AM 64.4 °F 58.8 °F 82% 29.89 in 10.0 mi NNE 13.8 mph - N/A   Overcast
7:55 AM 64.8 °F 58.5 °F 80% 29.89 in 10.0 mi NNE 13.8 mph - N/A   Overcast
8:15 AM 64.8 °F 58.5 °F 80% 29.90 in 10.0 mi North 12.7 mph 19.6 mph N/A   Overcast
8:35 AM 64.9 °F 58.5 °F 79% 29.91 in 10.0 mi North 15.0 mph 19.6 mph N/A   Overcast
8:55 AM 64.9 °F 58.3 °F 79% 29.92 in 10.0 mi NNE 10.4 mph - N/A   Overcast
9:15 AM 64.9 °F 58.1 °F 78% 29.92 in 10.0 mi North 15.0 mph 18.4 mph N/A   Overcast
9:35 AM 65.3 °F 58.3 °F 78% 29.93 in 10.0 mi North 13.8 mph 19.6 mph N/A   Mostly Cloudy
9:55 AM 66.0 °F 58.3 °F 76% 29.94 in 10.0 mi North 10.4 mph - N/A   Mostly Cloudy
10:15 AM 66.6 °F 58.5 °F 75% 29.93 in 10.0 mi NNE 9.2 mph - N/A   Mostly Cloudy
10:35 AM 66.7 °F 58.6 °F 75% 29.94 in 10.0 mi NNE 13.8 mph 20.7 mph N/A   Mostly Cloudy
10:55 AM 67.5 °F 59.0 °F 74% 29.93 in 10.0 mi NE 12.7 mph 19.6 mph N/A   Scattered Clouds
11:15 AM 68.4 °F 59.0 °F 72% 29.93 in 10.0 mi NE 12.7 mph 19.6 mph N/A   Scattered Clouds
11:35 AM 69.4 °F 59.2 °F 70% 29.95 in 10.0 mi NE 6.9 mph - N/A   Scattered Clouds
11:55 AM 70.7 °F 59.4 °F 67% 29.94 in 10.0 mi NE 10.4 mph - N/A   Mostly Cloudy
12:15 PM 72.5 °F 59.4 °F 63% 29.92 in 10.0 mi NNE 10.4 mph 19.6 mph N/A   Scattered Clouds
12:35 PM 75.2 °F 59.4 °F 58% 29.91 in 10.0 mi NNE 12.7 mph 18.4 mph N/A   Scattered Clouds
12:55 PM 75.7 °F 58.8 °F 56% 29.92 in 10.0 mi NNE 13.8 mph 17.3 mph N/A   Scattered Clouds
1:15 PM 75.9 °F 58.3 °F 54% 29.92 in 10.0 mi NNE 13.8 mph - N/A   Scattered Clouds
1:35 PM 76.6 °F 58.5 °F 53% 29.92 in 10.0 mi North 11.5 mph 16.1 mph N/A   Scattered Clouds
1:55 PM 77.0 °F 58.1 °F 52% 29.92 in 10.0 mi North 13.8 mph - N/A   Mostly Cloudy
2:15 PM 77.5 °F 57.6 °F 50% 29.92 in 10.0 mi North 11.5 mph 17.3 mph N/A   Scattered Clouds
2:35 PM 76.6 °F 58.1 °F 53% 29.92 in 10.0 mi North 19.6 mph 25.3 mph N/A   Mostly Cloudy
2:55 PM 75.0 °F 58.1 °F 56% 29.92 in 10.0 mi NNW 18.4 mph - N/A   Mostly Cloudy
3:15 PM 75.2 °F 58.1 °F 55% 29.93 in 10.0 mi North 18.4 mph 24.2 mph N/A   Scattered Clouds
3:35 PM 75.4 °F 57.7 °F 54% 29.92 in 10.0 mi North 17.3 mph 23.0 mph N/A   Scattered Clouds
3:55 PM 75.7 °F 57.6 °F 53% 29.92 in 10.0 mi North 16.1 mph 24.2 mph N/A   Clear
4:15 PM 74.5 °F 57.2 °F 55% 29.92 in 10.0 mi North 13.8 mph - N/A   Clear
4:35 PM 74.3 °F 57.2 °F 55% 29.93 in 10.0 mi North 16.1 mph 19.6 mph N/A   Scattered Clouds
4:55 PM 73.6 °F 57.2 °F 56% 29.91 in 10.0 mi NNW 18.4 mph 23.0 mph N/A   Scattered Clouds
5:15 PM 73.4 °F 57.2 °F 57% 29.93 in 10.0 mi NNW 20.7 mph 25.3 mph N/A   Scattered Clouds
5:35 PM 71.6 °F 56.5 °F 59% 29.93 in 10.0 mi NNW 21.9 mph 26.5 mph N/A   Mostly Cloudy
5:55 PM 70.3 °F 55.9 °F 60% 29.94 in 10.0 mi NNW 20.7 mph 25.3 mph N/A   Scattered Clouds
6:15 PM 68.0 °F 55.4 °F 64% 29.95 in 10.0 mi NNW 23.0 mph - N/A   Scattered Clouds
6:35 PM 66.0 °F 55.4 °F 69% 29.97 in 10.0 mi NNW 23.0 mph 28.8 mph N/A   Mostly Cloudy
6:55 PM 63.0 °F 54.5 °F 74% 29.97 in 10.0 mi North 24.2 mph 29.9 mph N/A   Overcast
7:15 PM 62.6 °F 53.6 °F 72% 29.97 in 10.0 mi North 23.0 mph 29.9 mph N/A   Overcast
7:35 PM 62.6 °F 53.1 °F 71% 29.99 in 10.0 mi North 23.0 mph 26.5 mph N/A   Overcast
7:55 PM 62.1 °F 52.7 °F 71% 29.99 in 10.0 mi North 20.7 mph 27.6 mph N/A   Scattered Clouds
8:15 PM 61.7 °F 52.2 °F 71% 30.01 in 10.0 mi North 17.3 mph 21.9 mph N/A   Scattered Clouds
8:35 PM 61.3 °F 52.2 °F 72% 30.02 in 10.0 mi North 17.3 mph 24.2 mph N/A   Clear
8:55 PM 60.1 °F 52.7 °F 77% 30.04 in 10.0 mi North 19.6 mph - N/A   Scattered Clouds
9:15 PM 60.3 °F 52.2 °F 75% 30.06 in 10.0 mi North 16.1 mph 20.7 mph N/A   Scattered Clouds
9:35 PM 59.9 °F 51.8 °F 75% 30.07 in 10.0 mi North 18.4 mph - N/A   Scattered Clouds
9:55 PM 59.4 °F 51.8 °F 76% 30.08 in 10.0 mi North 16.1 mph 24.2 mph N/A   Clear
10:15 PM 59.2 °F 51.8 °F 77% 30.09 in 10.0 mi North 16.1 mph 24.2 mph N/A   Scattered Clouds
10:35 PM 59.0 °F 51.8 °F 77% 30.10 in 10.0 mi North 16.1 mph - N/A   Mostly Cloudy
10:55 PM 58.5 °F 51.4 °F 77% 30.10 in 10.0 mi North 15.0 mph - N/A   Overcast
11:15 PM 57.7 °F 50.7 °F 77% 30.11 in 10.0 mi North 17.3 mph - N/A   Scattered Clouds
11:35 PM 57.2 °F 50.2 °F 77% 30.12 in 10.0 mi North 15.0 mph - N/A   Scattered Clouds
11:55 PM 57.2 °F 50.0 °F 77% 30.12 in 10.0 mi North 13.8 mph - N/A   Mostly Cloudy